[1] xampp.rar 2018-07-13 11:54:22 83.51 MB
[2] excel2017drv.exe 2018-06-20 11:19:15 25.41 MB
[3] Excel2007_Pack.rar 2018-06-11 23:27:51 180.01 MB
[4] 3x9-code128.rdlc 2018-03-26 11:16:57 8.4 KB
[5] t9-3lines.xlsx 2018-03-21 00:48:40 6.64 KB
[6] ds_shopAL.rar 2018-03-06 13:49:31 4.31 MB
[7] wps.exe 2017-12-06 13:28:59 65.07 MB
[8] importTemplate.xlsx 2017-12-04 18:07:00 16.73 KB
[9] Nota.cmd 2017-11-14 10:33:25 39 B
[10] winrar-x64-550scp.exe 2017-11-13 16:59:08 2.24 MB
[11] 3389-6688-2.reg 2017-11-13 16:46:38 570 B
[12] fw6688.reg 2017-11-13 16:39:33 170.69 KB
[13] H50FF0FBE_0623205222.apk 2017-06-25 10:13:51 4.88 MB
[14] DemoTPVv.apk 2017-04-26 20:03:54 1.56 MB
[15] stargo-release.apk 2017-04-22 20:29:57 2.54 MB
[16] FinalData3.0.zip 2017-03-14 17:58:23 4.98 MB
[17] ad 2016-10-21 16:50:51 4 KB
[18] 去除箱的.txt 2016-08-02 09:40:57 311 B
[19] CMS-20160218.exe 2016-07-20 21:23:39 32 MB
[20] CAM-ROBOT-20160615_ALL.bin 2016-07-20 21:20:24 6.4 MB
[21] densenVSbohao.reg 2016-06-17 22:20:34 216 B
[22] pciDrv.zip 2016-04-11 11:25:28 503.88 KB
[23] APP申请资料清单.xls 2016-03-28 12:30:12 122 KB
[24] GhoExp.exe 2016-03-19 20:53:26 1002.83 KB
[25] cpeg.txt 2016-03-17 15:59:40 232 B
[26] TeamViewerQS.exe 2016-03-08 14:49:51 5.24 MB
[27] UPOS_Driver.exe 2016-03-08 11:30:40 11.11 MB
[28] hot.png 2016-03-07 17:18:13 14.51 KB
[29] DSP.exe 2016-03-06 15:39:16 27 KB
[30] GS-LED8N.rar 2016-03-06 13:37:26 667.82 KB
[31] DDNS2016.exe 2016-03-04 14:09:20 233.76 KB
[32] Win10安装软件提示“你必须取消阻止该发布者才能运行此软件”解决方法.reg 2016-01-15 16:40:32 536 B
[33] 哦.csv 2016-01-14 15:08:05 33.59 KB
[34] 负库存清零语句.txt 2015-12-13 16:04:37 67 B
[35] 商业管理软件出现登录界面按【确定】后不能进入主界面的解决办法.reg 2015-12-13 14:14:25 296 B
[36] 5x13-Texto - shuangzhi.rdlc 2015-12-03 13:49:02 6.77 KB
[37] teamviewer10.exe 2015-12-01 14:04:16 9.07 MB
[38] PL2303_Prolific_v1.7.0.rar 2015-11-17 13:09:53 2.08 MB
[39] WizTree.exe 2015-11-04 14:22:58 1.64 MB
[40] TD5130路由器配置教程.doc 2015-09-16 11:46:19 505 KB
[41] bixolon_opos_driver_setup_en_v4.2.14.zip 2015-09-10 16:42:35 4.52 MB
[42] bixolon_srp-350plusiii_windows_driver_v1.2.8.zip 2015-09-10 16:42:35 17.38 MB
[43] bixolon_vcom_for_usb_v1.0.10.2_v2.0.11.2.zip 2015-09-10 16:42:33 8.28 MB
[44] 360sd_x64.exe 2015-09-10 16:20:48 33.79 MB
[45] 360sd.exe 2015-09-10 16:20:42 28.33 MB
[46] OPOS_4.2.15.exe 2015-09-07 16:01:12 6.31 MB
[47] SQL express 2014.txt 2015-08-31 15:09:13 746 B
[48] 单据处理人员使用说明.doc 2015-08-28 20:25:43 320.5 KB
[49] 检查结帐后编辑再删除的单据.doc 2015-08-28 20:24:47 28.5 KB
[50] NetFxRepairTool.exe 2015-08-22 10:27:20 858.49 KB
[51] test2.PNG 2015-08-17 14:50:51 72.2 KB
[52] test.PNG 2015-08-17 14:50:45 71.81 KB
[53] iCart15.rar 2015-08-11 12:01:59 660.33 KB
[54] Thunder.exe 2015-08-05 01:45:09 23.18 MB
[55] AA_v3.exe 2015-07-28 14:45:20 755.49 KB
[56] 云打印机.exe 2015-03-29 14:41:51 859.58 KB
[57] xp.exe 2015-02-26 00:38:18 96.43 KB
[58] teamviewer3.exe 2015-02-23 12:11:33 1.04 MB
[59] ChromeSetup.exe 2014-12-17 12:45:21 860.14 KB
[60] 批量改包和箱单位关系.doc 2014-09-15 11:07:22 162.5 KB
[61] Brother闪灯故障复位步骤.txt 2014-09-15 10:56:23 142 B
[62] dsSync.msi 2014-09-10 13:57:49 1.11 MB
[63] dsOrder.msi 2014-09-09 15:47:43 1.74 MB
[64] Ghostexp.exe 2014-08-29 10:52:37 3.38 MB
[65] dsOrderTabletPlus.apk 2014-08-11 16:48:49 817.01 KB
[66] Google_Play_Store_v4_4_22.apk 2014-08-11 14:19:09 5.84 MB
[67] Albaran2013-italia.rar 2014-07-22 13:14:14 5.35 KB
[68] Albaran2013-qiang.rar 2014-07-17 12:36:22 5.17 KB
[69] 20130509 SQL 2005日志文件损坏修复.txt 2014-06-17 11:04:47 1.47 KB
[70] 用组策略来禁止修改系统时间的方法.doc 2014-06-13 10:11:22 58 KB
[71] no_modifica_fecha.txt 2014-06-13 10:10:55 54 B
[72] 把USB打印机映射到LPT2端口.rar 2014-03-19 14:12:48 4.25 KB
[73] 20090210 中讯科技 商业管理软件扫描输入单据处理步骤.doc 2014-03-19 12:33:32 594.5 KB
[74] 20090819 盘点机使用说明.doc 2014-03-19 12:33:09 538 KB
[75] 20091002 多点远程支持说明.doc 2014-03-19 12:32:42 22.5 KB
[76] 20101122 百汇数据导入方法.txt 2014-03-19 12:32:24 207 B
[77] 国华科技-转数据.txt 2014-03-19 12:32:21 225 B
[78] 光影魔术手缩小图片步骤.docx 2014-03-19 12:31:46 903.35 KB
[79] 20140319 SRP-350II USB打印机OPOS驱动设置步骤.doc 2014-03-19 12:31:12 480.5 KB
[80] dsAlmacen.ipa 2014-01-09 02:31:32 1.52 MB
[81] Ghost2009.exe 2013-11-11 15:30:39 5.23 MB
[82] dvr_1400_9000.rar 2013-11-01 20:44:13 33.43 MB
[83] winrar32bit.exe 2013-11-01 20:38:57 1.54 MB
[84] mini_tools.rar 2013-11-01 20:38:09 15.74 MB
[85] HDD_dvr_h.264_player.rar 2013-11-01 20:35:42 7.36 MB
[86] dsOrderPublic.msi 2013-10-25 20:59:09 1.73 MB
[87] LogMeIn.msi 2013-10-13 17:08:55 19.46 MB
[88] CMS.exe 2013-09-13 12:02:01 8.78 MB
[89] jiang xiao Order.rar 2013-09-02 11:37:14 256.39 KB
[90] 光影魔术手.exe 2013-09-01 14:50:56 15.1 MB
[91] vMEyeCloud(v1.4.0).apk 2013-08-18 14:42:26 2.89 MB
[92] tienda_Sql.txt 2013-08-01 01:12:15 26 B
[93] RestauranteC.msi 2013-01-13 16:57:20 4.76 MB
[94] oki206-406.rar 2012-08-14 15:24:19 806.86 KB
[95] DVR_IE_V2.0.0.21_20110819.exe 2012-07-27 11:10:06 1.8 MB
[96] DVR_IE.exe 2012-07-27 11:08:05 1.85 MB
[97] SamsungLaserUniversal.exe 2012-07-19 13:59:10 20.2 MB
[98] OKI_OPOS_Driver.rar 2012-06-19 12:15:39 7.48 MB
[99] USB_Driver_posbank_A10.rar 2012-04-24 13:01:54 3.18 MB
[100] USB_COM_Driver_220ii.rar 2012-04-24 13:00:31 29.58 KB
[101] A10_MiniPrinter_v1.5.2_x64_en.exe 2012-04-24 12:58:58 2.88 MB
[102] ds_shop_with_log.exe 2012-03-23 15:21:24 689.39 KB
[103] Office2003.exe 2012-03-01 11:46:34 83 MB
[104] usb.rar 2011-12-29 16:13:38 7.43 MB
[105] GP80_USB_VIRTUAL_COM.rar 2011-12-24 14:55:27 29.43 KB
[106] DSP420.rar 2011-07-22 12:35:12 3.41 MB
[107] 350.exe 2011-04-08 10:35:02 5.67 MB
[108] 275.exe 2011-04-08 10:33:58 7.54 MB
[109] 1018.exe 2011-04-08 10:33:10 3.54 MB
[110] 1005.exe 2011-04-08 10:31:07 3.48 MB
[111] SRP-350_V3.1.9E.exe 2011-04-08 10:26:34 3.17 MB
[112] A10.exe 2011-04-08 10:24:09 2.13 MB
[113] SRP-350_V3.1.9Ea_x64.exe 2011-04-08 10:22:51 3.28 MB
[114] UPOS4.0.7.exe 2011-04-08 09:52:56 11.11 MB
[115] 20100817_Client_Pre.doc 2010-08-17 16:29:55 283.5 KB
[116] 20090210_Finereader.doc 2010-08-17 16:21:24 594.5 KB
[117] MS7120-9540.pdf 2009-01-16 10:42:46 2.06 MB
[118] SetupDDNS.exe 2008-04-27 19:29:06 65.66 KB